Weather History for Rochelle, IL

Change the Weather History Date:

Friday, January 25, 2013

  Actual Average (KRFD) Record (KRFD)
Temperature  
Mean Temperature 24 °F 22 °F  
Max Temperature 31 °F 30 °F 54 °F (1973)
Min Temperature 15 °F 14 °F -20 °F (1936)
Degree Days  
Heating Degree Days 41 43  
Month to date heating degree days 1093  
Since 1 July heating degree days 3654  
Cooling Degree Days 0 0  
Month to date cooling degree days 0  
Year to date cooling degree days 0  
Moisture  
Dew Point 14 °F    
Average Humidity 73    
Maximum Humidity 93    
Minimum Humidity 56    
Precipitation  
Precipitation 0.00 in 0.04 in 1.20 in (1950)
Month to date precipitation 1.12  
Year to date precipitation 1.12  
Snow  
Snow 0.00 in 0.30 in 8.20 in (1990)
Month to date snowfall 8.2  
Since 1 July snowfall 21.3  
Snow Depth -    
Sea Level Pressure  
Sea Level Pressure 30.10 in    
Wind  
Wind Speed 12 mph (WSW)    
Max Wind Speed 21 mph    
Max Gust Speed 29 mph    
Visibility 9 miles    
Events Rain , Snow    
T = Trace of Precipitation, MM = Missing Value Source: NWS Daily Summary

Daily Weather History Graph

Daily Weather History Graph

Search for Another Location

Airport:

Trip Planner

Search our weather history database for the weather conditions in past years. The results will help you decide how hot, cold, wet, or windy it might be!

Date:

Astronomy

Jan. 25, 2013 Rise Set
Actual Time 7:15 AM CST 5:02 PM CST
Civil Twilight 6:45 AM CST 5:32 PM CST
Nautical Twilight 6:11 AM CST 6:06 PM CST
Astronomical Twilight 5:38 AM CST 6:39 PM CST
Moon 4:00 PM CST (1/25) 5:54 AM CST (1/25)
Length of Visible Light 10h 47m
Length of Day
9h 47m
Waxing Gibbous, 98% of the Moon is Illuminated
Jan 25
Waxing Gibbous
Jan 26
Full
Feb 3
Last Quarter
Feb 10
New
Feb 17
First Quarter

Hourly Weather History & Observations

Time (CST) Temp. Windchill Dew Point Humidity Pressure Visibility Wind Dir Wind Speed Gust Speed Precip Events Conditions
12:15 AM 19.2 °F 7.0 °F 6.4 °F 58% 30.31 in 10.0 mi SE 11.5 mph - N/A   Overcast
12:35 AM 19.2 °F 6.4 °F 6.8 °F 59% 30.29 in 10.0 mi SE 12.7 mph - N/A   Mostly Cloudy
12:55 AM 19.2 °F 6.4 °F 7.0 °F 59% 30.27 in 10.0 mi SE 12.7 mph - N/A   Overcast
1:15 AM 19.2 °F 6.4 °F 7.0 °F 59% 30.26 in 10.0 mi SE 12.7 mph - N/A   Overcast
1:35 AM 19.2 °F 6.4 °F 7.0 °F 59% 30.26 in 10.0 mi SE 12.7 mph - N/A   Overcast
1:55 AM 19.4 °F 7.2 °F 6.6 °F 58% 30.26 in 10.0 mi SE 11.5 mph - N/A   Overcast
2:15 AM 19.4 °F 6.6 °F 6.8 °F 58% 30.24 in 10.0 mi SE 12.7 mph - N/A   Overcast
2:35 AM 19.4 °F 7.2 °F 6.8 °F 58% 30.23 in 10.0 mi SE 11.5 mph - N/A   Overcast
2:55 AM 19.8 °F 7.1 °F 6.6 °F 57% 30.21 in 10.0 mi SE 12.7 mph - N/A   Overcast
3:15 AM 19.9 °F 7.3 °F 6.6 °F 56% 30.20 in 10.0 mi SE 12.7 mph - N/A   Overcast
3:35 AM 19.8 °F 7.1 °F 7.5 °F 59% 30.19 in 7.0 mi SSE 12.7 mph - N/A   Overcast
3:55 AM 19.0 °F 5.0 °F 10.0 °F 68% 30.18 in 5.0 mi SSE 15.0 mph - N/A   Overcast
4:15 AM 18.5 °F 4.3 °F 12.6 °F 78% 30.16 in 2.5 mi SSE 15.0 mph - N/A   Overcast
4:55 AM 17.4 °F 7.1 °F 15.3 °F 91% 30.14 in 1.5 mi South 8.1 mph - N/A Snow Light Snow
5:15 AM 17.4 °F 6.2 °F 15.4 °F 92% 30.16 in 1.8 mi South 9.2 mph - N/A Snow Light Snow
5:35 AM 17.4 °F 6.2 °F 15.6 °F 93% 30.16 in 3.0 mi South 9.2 mph - N/A Snow Light Snow
6:15 AM 17.4 °F 8.0 °F 15.4 °F 92% 30.14 in 10.0 mi South 6.9 mph - N/A   Overcast
6:35 AM 17.6 °F 5.7 °F 15.4 °F 91% 30.12 in 5.0 mi South 10.4 mph - N/A   Overcast
6:55 AM 17.6 °F 5.0 °F 15.3 °F 91% 30.12 in 10.0 mi South 11.5 mph - N/A   Overcast
7:15 AM 17.6 °F 6.4 °F 15.4 °F 91% 30.12 in 10.0 mi South 9.2 mph - N/A   Overcast
7:35 AM 18.0 °F 6.9 °F 15.4 °F 90% 30.11 in 7.0 mi South 9.2 mph - N/A   Overcast
7:55 AM 18.1 °F 7.1 °F 15.8 °F 91% 30.09 in 10.0 mi South 9.2 mph - N/A   Overcast
8:15 AM 18.3 °F 7.3 °F 15.8 °F 90% 30.09 in 10.0 mi South 9.2 mph - N/A   Overcast
8:35 AM 18.7 °F 6.3 °F 16.0 °F 89% 30.08 in 10.0 mi South 11.5 mph - N/A   Overcast
8:55 AM 19.0 °F 6.8 °F 16.3 °F 89% 30.08 in 10.0 mi SSW 11.5 mph - N/A   Overcast
9:15 AM 19.4 °F 7.9 °F 16.5 °F 89% 30.09 in 10.0 mi SSW 10.4 mph - N/A   Overcast
9:35 AM 20.1 °F 7.5 °F 17.2 °F 89% 30.08 in 10.0 mi SSW 12.7 mph - N/A   Overcast
9:55 AM 20.8 °F 8.4 °F 17.4 °F 87% 30.07 in 10.0 mi SSW 12.7 mph - N/A   Overcast
10:15 AM 21.7 °F 10.2 °F 17.8 °F 85% 30.06 in 10.0 mi SSW 11.5 mph - N/A   Overcast
10:35 AM 23.0 °F 10.6 °F 17.4 °F 79% 30.05 in 10.0 mi SW 13.8 mph - N/A   Overcast
10:55 AM 23.4 °F 10.6 °F 17.6 °F 79% 30.05 in 10.0 mi WSW 15.0 mph - N/A   Overcast
11:15 AM 23.5 °F 10.3 °F 16.9 °F 76% 30.04 in 10.0 mi WSW 16.1 mph - N/A   Overcast
11:35 AM 23.9 °F 10.8 °F 17.6 °F 77% 30.03 in 10.0 mi WSW 16.1 mph - N/A   Overcast
11:55 AM 24.3 °F 11.7 °F 17.6 °F 76% 30.01 in 10.0 mi WSW 15.0 mph - N/A   Mostly Cloudy
12:15 PM 25.2 °F 12.0 °F 18.0 °F 74% 30.00 in 10.0 mi WSW 17.3 mph - N/A   Mostly Cloudy
12:35 PM 25.2 °F 13.3 °F 18.3 °F 75% 29.99 in 10.0 mi WSW 13.8 mph - N/A   Mostly Cloudy
1:15 PM 26.4 °F 14.5 °F 19.4 °F 75% 29.97 in 10.0 mi WSW 15.0 mph 23.0 mph N/A   Mostly Cloudy
1:35 PM 27.3 °F 14.4 °F 19.8 °F 73% 29.96 in 10.0 mi WSW 18.4 mph - N/A   Mostly Cloudy
1:55 PM 28.0 °F 14.6 °F 19.2 °F 70% 29.96 in 10.0 mi WSW 20.7 mph 24.2 mph N/A   Scattered Clouds
2:15 PM 29.1 °F 16.7 °F 19.9 °F 69% 29.95 in 10.0 mi WSW 18.4 mph 25.3 mph N/A   Clear
2:35 PM 29.7 °F 19.1 °F 20.1 °F 68% 29.96 in 10.0 mi West 13.8 mph - N/A   Clear
2:55 PM 29.8 °F 18.4 °F 19.9 °F 67% 29.96 in 10.0 mi West 16.1 mph - N/A   Clear
3:15 PM 30.9 °F 19.1 °F 19.2 °F 62% 29.96 in 10.0 mi West 18.4 mph - N/A   Clear
3:35 PM 31.3 °F 21.1 °F 19.9 °F 63% 29.96 in 10.0 mi West 13.8 mph 18.4 mph N/A   Scattered Clouds
3:55 PM 31.1 °F 19.3 °F 19.2 °F 61% 29.96 in 10.0 mi West 18.4 mph 23.0 mph N/A   Scattered Clouds
4:15 PM 30.4 °F 19.1 °F 18.5 °F 61% 29.98 in 10.0 mi West 16.1 mph - N/A   Clear
4:35 PM 29.5 °F 17.2 °F 17.6 °F 61% 29.99 in 10.0 mi WNW 18.4 mph - N/A   Scattered Clouds
4:55 PM 28.2 °F 15.5 °F 18.9 °F 68% 30.01 in 10.0 mi WNW 18.4 mph 28.8 mph N/A   Mostly Cloudy
5:15 PM 27.3 °F 14.0 °F 18.5 °F 69% 30.02 in 10.0 mi WNW 19.6 mph 27.6 mph N/A   Overcast
5:35 PM 26.8 °F 14.5 °F 17.8 °F 69% 30.03 in 10.0 mi WNW 16.1 mph 24.2 mph N/A   Overcast
5:55 PM 26.6 °F 15.7 °F 17.4 °F 68% 30.03 in 10.0 mi WNW 12.7 mph - N/A   Overcast
6:15 PM 26.4 °F 16.6 °F 17.8 °F 70% 30.04 in 10.0 mi WNW 10.4 mph - N/A   Overcast
6:35 PM 26.2 °F 19.6 °F 18.1 °F 71% 30.05 in 10.0 mi WNW 5.8 mph - N/A   Light Freezing Rain
6:55 PM 26.1 °F 17.6 °F 18.3 °F 73% 30.05 in 10.0 mi NW 8.1 mph - N/A   Overcast
7:15 PM 26.1 °F 19.4 °F 18.5 °F 73% 30.06 in 10.0 mi NW 5.8 mph - N/A Rain Light Freezing Rain
7:35 PM 25.7 °F 14.6 °F 18.9 °F 75% 30.06 in 10.0 mi NW 12.7 mph 18.4 mph N/A Rain Light Freezing Rain
7:55 PM 24.6 °F 11.7 °F 13.8 °F 64% 30.08 in 10.0 mi NW 16.1 mph 25.3 mph N/A   Overcast
8:15 PM 23.0 °F 10.1 °F 12.0 °F 63% 30.08 in 10.0 mi NW 15.0 mph - N/A   Mostly Cloudy
8:35 PM 21.6 °F 10.6 °F 11.1 °F 64% 30.09 in 10.0 mi NW 10.4 mph 16.1 mph N/A   Scattered Clouds
8:55 PM 20.8 °F 9.0 °F 10.8 °F 65% 30.09 in 10.0 mi NW 11.5 mph 18.4 mph N/A   Clear
9:15 PM 20.1 °F 8.1 °F 10.8 °F 67% 30.11 in 10.0 mi NW 11.5 mph - N/A   Clear
9:35 PM 19.9 °F 7.9 °F 11.3 °F 69% 30.12 in 10.0 mi NW 11.5 mph - N/A   Mostly Cloudy
9:55 PM 20.3 °F 9.0 °F 11.3 °F 68% 30.12 in 10.0 mi NW 10.4 mph - N/A   Overcast
10:15 PM 19.4 °F 7.9 °F 11.1 °F 70% 30.14 in 10.0 mi NW 10.4 mph - N/A   Mostly Cloudy
10:35 PM 18.9 °F 7.2 °F 11.3 °F 72% 30.15 in 10.0 mi NW 10.4 mph - N/A   Overcast
10:55 PM 19.0 °F 8.2 °F 11.3 °F 72% 30.16 in 10.0 mi NW 9.2 mph - N/A   Mostly Cloudy
11:15 PM 17.8 °F 4.6 °F 11.1 °F 75% 30.18 in 10.0 mi NNW 12.7 mph - N/A   Scattered Clouds
11:35 PM 17.4 °F 6.2 °F 9.9 °F 72% 30.20 in 10.0 mi NW 9.2 mph - N/A   Clear
11:55 PM 15.8 °F 7.2 °F 9.5 °F 76% 30.20 in 10.0 mi NW 5.8 mph - N/A   Clear